User: anonymous   Login
Location: Austin, TX
(30.3000°N, 97.7500°W)
Time: 23:31:43
(UTC-05:00)
Language:

Cosmos 2082 Rocket - Orbit

View from above orbital plane
View from above orbital plane
View from above satellite
View from above satellite

Ground track
Ground track

The orbit data is extracted from the following two-line orbital elements,

1 20625U 90046B   16236.96559508 -.00000132 +00000-0 -43682-4 0  9994
2 20625 070.9994 052.9364 0015111 207.7110 307.9800 14.14606691355548
Epoch (UTC): 23 August 2016 23:10:27
Eccentricity: 0.0015111
inclination: 70.9994°
perigee height: 833 km
apogee height: 854 km
right ascension of ascending node: 52.9364°
argument of perigee: 207.7110°
revolutions per day: 14.14606691
mean anomaly at epoch: 307.9800°
orbit number at epoch: 35554

The dashed part of the orbit path shows where the satellite is in the earth's shadow,  

DLR